Location: Fauquembergues
(50.6005°N, 2.0987°E)
Time: 08:45:00
(UTC+00:00)

Cosmos 2016 Rocket - Pass Details

Date: 14 July 2020
Orbit: 948 x 999 km, 83.0° (Epoch: 14 August)

Event Time Altitude Azimuth Distance (km) Brightness Sun altitude
Exits shadow 01:53:41 17° 193° (SSW) 2,207 5.3 -13.4°
Maximum altitude 01:58:33 82° 280° (W) 983 4.0 -13.0°
Drops below altitude 10° 02:04:50 10° 8° (N) 2,736 7.5 -12.5°
Sets 02:07:22 0° 10° (N) 3,695 8.5 -12.3°
